2023/09/17 00:00:00,20.2,22.5
2023/09/17 00:10:00,20.2,22.8
2023/09/17 00:20:00,20.2,22.7
2023/09/17 00:30:00,20.2,22.7
2023/09/17 00:40:00,20.1,22.6
2023/09/17 00:50:00,20.2,22.4
2023/09/17 01:00:00,20.1,22.8
2023/09/17 01:10:00,20.1,22.4
2023/09/17 01:20:00,20.2,22.2
2023/09/17 01:30:00,20.2,22.4
2023/09/17 01:40:00,20.1,22.5
2023/09/17 01:50:00,20.1,22.3
2023/09/17 02:00:00,20.0,21.9
2023/09/17 02:10:00,20.1,22.0
2023/09/17 02:20:00,20.1,21.8
2023/09/17 02:30:00,20.1,21.8
2023/09/17 02:40:00,20.0,21.6
2023/09/17 02:50:00,20.0,21.7
2023/09/17 03:00:00,19.9,21.6
2023/09/17 03:10:00,20.0,21.8
2023/09/17 03:20:00,20.1,21.9
2023/09/17 03:30:00,20.0,21.7
2023/09/17 03:40:00,20.1,21.7
2023/09/17 03:50:00,20.1,21.6
2023/09/17 04:00:00,25.3,21.5
2023/09/17 04:10:00,20.3,21.5
2023/09/17 04:20:00,19.8,21.5
2023/09/17 04:30:00,19.9,21.4
2023/09/17 04:40:00,19.5,21.4
2023/09/17 04:50:00,19.8,21.4
2023/09/17 05:00:00,20.0,21.4
2023/09/17 05:10:00,20.0,21.4
2023/09/17 05:20:00,19.8,21.4
2023/09/17 05:30:00,19.7,21.3
2023/09/17 05:40:00,20.1,21.3
2023/09/17 05:50:00,25.0,21.4
2023/09/17 06:00:00,20.1,21.4
2023/09/17 06:10:00,20.1,21.3
2023/09/17 06:20:00,20.0,21.3
2023/09/17 06:30:00,20.0,21.1
2023/09/17 06:40:00,20.1,21.4
2023/09/17 06:50:00,20.2,21.4
2023/09/17 07:00:00,20.1,21.2
2023/09/17 07:10:00,20.2,21.4
2023/09/17 07:20:00,23.7,21.5
2023/09/17 07:30:00,27.2,22.1
2023/09/17 07:40:00,21.4,23.0
2023/09/17 07:50:00,19.4,23.0
2023/09/17 08:00:00,19.3,23.6
2023/09/17 08:10:00,19.5,24.2
2023/09/17 08:20:00,20.2,24.5
2023/09/17 08:30:00,20.7,25.3
2023/09/17 08:40:00,22.2,25.8
2023/09/17 08:50:00,24.5,26.1
2023/09/17 09:00:00,28.6,26.6
2023/09/17 09:10:00,31.8,27.2
2023/09/17 09:20:00,31.8,27.9
2023/09/17 09:30:00,---,28.8
2023/09/17 09:40:00,25.3,29.1
2023/09/17 09:50:00,22.8,29.8
2023/09/17 10:00:00,22.4,30.6
2023/09/17 10:10:00,22.5,31.0
2023/09/17 10:20:00,22.3,30.8
2023/09/17 10:30:00,21.5,31.2
2023/09/17 10:40:00,22.6,31.5
2023/09/17 10:50:00,23.0,31.8
2023/09/17 11:00:00,22.4,32.4
2023/09/17 11:10:00,22.2,33.1
2023/09/17 11:20:00,---,33.2
2023/09/17 11:30:00,22.4,33.8
2023/09/17 11:40:00,22.6,33.7
2023/09/17 11:50:00,22.1,33.9
2023/09/17 12:00:00,---,33.9
2023/09/17 12:10:00, 0.0,33.9
2023/09/17 12:20:00,---,34.2
2023/09/17 12:30:00,---,34.9
2023/09/17 12:40:00,20.3,33.4
2023/09/17 12:50:00,21.9,34.1
2023/09/17 13:00:00,---,34.8
2023/09/17 13:10:00,23.9,35.3
2023/09/17 13:20:00,---,34.9
2023/09/17 13:30:00,22.2,35.6
2023/09/17 13:40:00,---,35.7
2023/09/17 13:50:00,21.9,35.7
2023/09/17 14:00:00,16.8,33.4
2023/09/17 14:10:00,16.4,33.2
2023/09/17 14:20:00,11.3,34.6
2023/09/17 14:30:00,13.4,34.9
2023/09/17 14:40:00,19.5,33.8
2023/09/17 14:50:00,15.9,32.2
2023/09/17 15:00:00,22.3,32.0
2023/09/17 15:10:00,21.6,31.3
2023/09/17 15:20:00,21.0,31.2
2023/09/17 15:30:00,21.0,30.9
2023/09/17 15:40:00,21.2,30.3
2023/09/17 15:50:00,21.2,31.1
2023/09/17 16:00:00,21.0,29.9
2023/09/17 16:10:00,21.3,29.6
2023/09/17 16:20:00,21.5,29.0
2023/09/17 16:30:00,21.7,28.8
2023/09/17 16:40:00,21.7,28.6
2023/09/17 16:50:00,21.6,28.5
2023/09/17 17:00:00,21.7,28.2
2023/09/17 17:10:00,21.7,28.1
2023/09/17 17:20:00,22.2,27.5
2023/09/17 17:30:00,22.4,27.3
2023/09/17 17:40:00,22.2,27.1
2023/09/17 17:50:00,22.4,26.9
2023/09/17 18:00:00,22.2,26.6
2023/09/17 18:10:00,22.3,26.4
2023/09/17 18:20:00,22.4,26.2
2023/09/17 18:30:00,22.4,25.7
2023/09/17 18:40:00,22.4,25.6
2023/09/17 18:50:00,22.3,25.3
2023/09/17 19:00:00,22.1,25.3
2023/09/17 19:10:00,22.0,25.0
2023/09/17 19:20:00,22.1,25.1
2023/09/17 19:30:00,21.9,24.5
2023/09/17 19:40:00,21.9,24.5
2023/09/17 19:50:00,21.8,24.5
2023/09/17 20:00:00,21.7,24.4
2023/09/17 20:10:00,21.8,24.6
2023/09/17 20:20:00,21.7,24.1
2023/09/17 20:30:00,21.6,24.1
2023/09/17 20:40:00,21.5,24.2
2023/09/17 20:50:00,21.5,23.7
2023/09/17 21:00:00,21.5,23.7
2023/09/17 21:10:00,21.5,23.5
2023/09/17 21:20:00,21.4,23.5
2023/09/17 21:30:00,21.3,23.4
2023/09/17 21:40:00,21.0,23.4
2023/09/17 21:50:00,20.9,23.5
2023/09/17 22:00:00,20.4,23.2
2023/09/17 22:10:00,20.5,22.9
2023/09/17 22:20:00,20.4,22.9
2023/09/17 22:30:00,20.3,22.6
2023/09/17 22:40:00,20.1,22.6
2023/09/17 22:50:00,20.2,22.5
2023/09/17 23:00:00,20.1,22.6
2023/09/17 23:10:00,19.9,22.5
2023/09/17 23:20:00,19.8,22.4
2023/09/17 23:30:00,19.7,22.4
2023/09/17 23:40:00,19.4,22.4
2023/09/17 23:50:00,19.6,22.2
